18.05.2024;21:00;3
18.05.2024;20:00;2
18.05.2024;19:00;2
18.05.2024;18:00;4
18.05.2024;17:00;3
18.05.2024;16:00;3
18.05.2024;15:00;2
18.05.2024;14:00;6
18.05.2024;13:00;8
18.05.2024;12:00;5
18.05.2024;11:00;3
18.05.2024;10:00;5
18.05.2024;09:00;5
18.05.2024;08:00;4
18.05.2024;07:00;5
18.05.2024;06:00;3
18.05.2024;05:00;4
18.05.2024;04:00;9
18.05.2024;03:00;7
18.05.2024;02:00;6
18.05.2024;01:00;5
17.05.2024;24:00;5
17.05.2024;23:00;4
17.05.2024;22:00;2
17.05.2024;21:00;2
17.05.2024;20:00;2
17.05.2024;19:00;2
17.05.2024;18:00;2
17.05.2024;17:00;2
17.05.2024;16:00;2
17.05.2024;15:00;2
17.05.2024;14:00;2
17.05.2024;13:00;2
17.05.2024;12:00;2
17.05.2024;11:00;2
17.05.2024;10:00;2
17.05.2024;09:00;2
17.05.2024;08:00;2
17.05.2024;07:00;2
17.05.2024;06:00;2
17.05.2024;05:00;2
17.05.2024;04:00;3
17.05.2024;03:00;3
17.05.2024;02:00;7
17.05.2024;01:00;6
16.05.2024;24:00;5
16.05.2024;23:00;3
16.05.2024;22:00;2
16.05.2024;21:00;2
16.05.2024;20:00;2
16.05.2024;19:00;2
16.05.2024;18:00;4
16.05.2024;17:00;9
16.05.2024;16:00;8
16.05.2024;15:00;9
16.05.2024;14:00;8
16.05.2024;13:00;8
16.05.2024;12:00;4
16.05.2024;11:00;2
16.05.2024;10:00;2
16.05.2024;09:00;3
16.05.2024;08:00;2
16.05.2024;07:00;3
16.05.2024;06:00;7
16.05.2024;05:00;10
16.05.2024;04:00;8
16.05.2024;03:00;6
16.05.2024;02:00;8
16.05.2024;01:00;5
15.05.2024;24:00;7
15.05.2024;23:00;8
15.05.2024;22:00;6
15.05.2024;21:00;6
15.05.2024;20:00;3
15.05.2024;19:00;2
15.05.2024;18:00;5
15.05.2024;17:00;9
15.05.2024;16:00;21
15.05.2024;15:00;25
15.05.2024;14:00;11
15.05.2024;13:00;14
15.05.2024;12:00;19
15.05.2024;11:00;14
15.05.2024;10:00;9
15.05.2024;09:00;6
15.05.2024;08:00;6
15.05.2024;07:00;6
15.05.2024;06:00;6
15.05.2024;05:00;5
15.05.2024;04:00;2
15.05.2024;03:00;3
15.05.2024;02:00;6
15.05.2024;01:00;7
14.05.2024;24:00;7
14.05.2024;23:00;6
14.05.2024;22:00;8
14.05.2024;21:00;6
14.05.2024;20:00;5
14.05.2024;19:00;4
14.05.2024;18:00;7
14.05.2024;17:00;10
14.05.2024;16:00;11
14.05.2024;15:00;12
14.05.2024;14:00;12
14.05.2024;13:00;10
14.05.2024;12:00;10
14.05.2024;11:00;6
14.05.2024;10:00;2
14.05.2024;09:00;12
14.05.2024;08:00;17
14.05.2024;07:00;13
14.05.2024;06:00;14
14.05.2024;05:00;13
14.05.2024;04:00;12
14.05.2024;03:00;8
14.05.2024;02:00;9
14.05.2024;01:00;9
13.05.2024;24:00;17
13.05.2024;23:00;3
13.05.2024;22:00;8
13.05.2024;21:00;13
13.05.2024;20:00;2
13.05.2024;19:00;2
13.05.2024;18:00;12
13.05.2024;17:00;10
13.05.2024;16:00;8
13.05.2024;15:00;7
13.05.2024;14:00;8
13.05.2024;13:00;6
13.05.2024;12:00;7
13.05.2024;11:00;12
13.05.2024;10:00;11
13.05.2024;09:00;12
13.05.2024;08:00;13
13.05.2024;07:00;12
13.05.2024;06:00;13
13.05.2024;05:00;11
13.05.2024;04:00;8
13.05.2024;03:00;7
13.05.2024;02:00;6
13.05.2024;01:00;10
